CW3017 Weather Reports


time (UTC)temp
C
wind
direction
speed
KPH
gust
KPH
rain 1hr
cm
rain 24hr
cm
rain mn
cm
humidity
%
barometer
mb
20260507054558 3 164 3.2 9.7 0.08 0.38 0.38 93 1016.6
20260507053058 3 117 1.6 6.4 0.13 0.36 0.36 92 1016.5
20260507051558 3 172 0.0 6.4 0.23 0.36 0.36 90 1016.4
20260507050058 3 126 4.8 9.7 0.25 0.33 0.33 91 1016.4
20260507044557 3 46 4.8 11.3 0.25 0.30 0.30 93 1016.4
20260507043055 3 138 1.6 11.3 0.18 0.23 0.23 93 1016.4
20260507041553 3 169 9.7 22.5 0.05 0.10 0.10 92 1016.4
20260507040050 3 149 12.9 29.0 0.05 0.08 0.08 89 1016.3
20260507034549 5 227 9.7 19.3 0.03 0.05 0.05 88 1016.0
20260507033048 5 244 0.0 3.2 0.05 0.05 0.05 88 1015.5
20260507031549 5 227 0.0 8.0 0.05 0.05 0.05 86 1015.4
20260507030046 5 164 3.2 8.0 0.03 0.03 0.03 85 1015.5
20260507024556 6 223 3.2 8.0 0.03 0.03 0.03 83 1015.3
20260507023045 6 196 4.8 9.7 0.00 0.00 0.00 80 1015.3
20260507021544 6 18 0.0 3.2 0.00 0.00 0.00 81 1015.1
20260507014552 6 267 1.6 4.8 0.00 0.00 0.00 83 1015.0
20260507013047 6 130 1.6 6.4 0.00 0.00 0.00 82 1015.0
20260507011540 6 171 1.6 12.9 0.00 0.00 0.00 81 1015.0
20260507010040 6 227 1.6 8.0 0.00 0.00 0.00 81 1015.0
20260507004542 6 128 3.2 11.3 0.00 0.00 0.00 80 1015.0
20260507003037 6 207 6.4 12.9 0.00 0.00 0.00 81 1014.9
20260507001538 6 190 4.8 11.3 0.00 0.00 0.00 81 1014.8
20260507000035 6 184 4.8 14.5 0.00 0.00 0.00 80 1014.8
20260506234537 6 259 8.0 16.1 0.00 0.00 0.00 78 1014.5
20260506233034 6 265 6.4 14.5 0.00 0.00 0.00 75 1014.5
20260506231545 6 227 9.7 25.7 0.00 0.00 0.00 76 1014.3
20260506230039 6 163 12.9 22.5 0.00 0.00 0.00 73 1014.3
20260506224531 6 158 11.3 22.5 0.00 0.00 0.00 72 1014.3
20260506223044 6 208 8.0 19.3 0.00 0.00 0.00 74 1014.1
20260506221527 6 196 9.7 20.9 0.00 0.00 0.00 73 1014.0
20260506220027 7 270 0.0 4.8 0.00 0.00 0.00 73 1013.8
20260506214525 7 294 3.2 6.4 0.00 0.00 0.00 73 1013.9
20260506213026 7 317 3.2 9.7 0.00 0.00 0.00 74 1013.7
20260506211529 7 290 1.6 8.0 0.00 0.00 0.00 74 1013.6
20260506210023 7 244 4.8 14.5 0.00 0.00 0.00 75 1013.5
20260506204519 7 252 3.2 8.0 0.00 0.00 0.00 74 1013.4
20260506203023 7 310 3.2 12.9 0.00 0.00 0.00 75 1013.3
20260506201529 6 246 3.2 6.4 0.00 0.00 0.00 76 1013.2
20260506200013 6 320 4.8 12.9 0.00 0.00 0.00 77 1013.0
20260506194510 6 329 1.6 11.3 0.00 0.00 0.00 77 1012.9
20260506193009 6 279 3.2 11.3 0.00 0.00 0.00 78 1013.0
20260506191507 6 232 1.6 8.0 0.00 0.00 0.00 75 1013.1
20260506190006 6 223 3.2 11.3 0.00 0.00 0.00 78 1012.9
20260506184504 5 288 1.6 6.4 0.00 0.00 0.00 79 1012.9
20260506183003 5 286 3.2 9.7 0.00 0.00 0.00 80 1012.8
20260506181502 5 225 0.0 6.4 0.00 0.00 0.00 81 1012.6
20260506180000 5 252 3.2 8.0 0.00 0.00 0.00 80 1012.6
20260506174600 5 272 1.6 4.8 0.00 0.00 0.00 80 1012.6
20260506173109 5 228 0.0 3.2 0.00 0.00 0.00 81 1012.5
20260506171557 4 148 0.0 3.2 0.00 0.00 0.00 82 1012.3
20260506170112 3 251 1.6 4.8 0.00 0.00 0.00 81 1012.3
20260506164556 3 248 1.6 3.2 0.00 0.00 0.00 82 1012.3
20260506163104 3 237 0.0 3.2 0.00 0.00 0.00 83 1012.0
20260506161552 3 246 0.0 1.6 0.00 0.00 0.00 83 1011.9
20260506160051 3 251 0.0 3.2 0.00 0.00 0.00 83 1011.8
20260506154551 3 221 0.0 3.2 0.00 0.00 0.00 83 1011.8
20260506153049 3 147 0.0 4.8 0.00 0.00 0.00 81 1011.7
20260506151548 3 140 0.0 3.2 0.00 0.00 0.00 80 1011.6
20260506150047 3 234 0.0 0.0 0.00 0.00 0.00 80 1011.4
20260506144559 3 204 0.0 0.0 0.00 0.00 0.00 79 1011.4
20260506143046 3 323 1.6 6.4 0.00 0.00 0.00 79 1011.4
20260506141544 3 34 1.6 6.4 0.00 0.00 0.00 79 1011.3
20260506140046 3 11 1.6 6.4 0.00 0.00 0.00 78 1011.3
20260506134542 3 355 1.6 3.2 0.00 0.00 0.00 76 1011.1
20260506133043 3 77 0.0 3.2 0.00 0.00 0.00 76 1011.1
20260506131539 3 62 0.0 4.8 0.00 0.00 0.00 75 1011.1
20260506130039 3 48 1.6 4.8 0.00 0.00 0.00 75 1011.0
20260506124537 3 42 1.6 3.2 0.00 0.00 0.00 75 1011.0
20260506123036 3 87 0.0 3.2 0.00 0.00 0.00 74 1011.0
20260506121534 3 43 1.6 4.8 0.00 0.00 0.00 73 1010.9
20260506120041 3 146 0.0 3.2 0.00 0.00 0.00 73 1010.8
20260506114533 4 323 0.0 3.2 0.00 0.00 0.00 73 1010.7
20260506113034 4 235 0.0 4.8 0.00 0.00 0.00 71 1010.7
20260506111531 4 94 0.0 4.8 0.00 0.00 0.00 72 1010.7
20260506110032 5 49 1.6 8.0 0.00 0.00 0.00 69 1010.7
20260506104528 5 12 0.0 4.8 0.00 0.00 0.00 69 1010.7
20260506103029 4 84 1.6 12.9 0.00 0.00 0.00 71 1010.5
20260506101525 4 157 1.6 8.0 0.00 0.00 0.00 73 1010.5
20260506100023 5 146 4.8 11.3 0.00 0.00 0.00 71 1010.5
20260506094521 5 116 1.6 4.8 0.00 0.00 0.00 70 1010.3
20260506093019 5 153 1.6 6.4 0.00 0.00 0.00 67 1010.2
20260506091518 5 123 3.2 17.7 0.00 0.00 0.00 66 1010.0
20260506090019 5 107 4.8 20.9 0.00 0.00 0.00 65 1009.9
20260506084513 5 122 4.8 16.1 0.00 0.00 0.00 65 1009.9
20260506083013 5 73 8.0 22.5 0.00 0.00 0.00 65 1009.7
20260506081509 5 113 11.3 25.7 0.00 0.00 0.00 65 1009.6
20260506073002 3 157 20.9 35.4 0.00 0.00 0.00 70 1009.1
20260506071600 3 137 22.5 40.2 0.00 0.00 0.00 69 1009.1
20260506061600 3 146 22.5 37.0 0.00 0.00 0.00 70 1008.8